Theta_e
296 296 296 296 295 295 295 295 295 296 296 297 298 297 297 298 299 299 298 296 295 294 294 294 294 294 294 294 294 294 294 293 293 294 295 295 294 295 293 293 293 293 291 288 288 288 288 288 286 286 285 285 284 283 283 282 282 282 282 282 281 280 280 278 278 277 277 279 280 280 280 280 279 279 278 278 278 280 281 278 278 278 277 277 277
296 296 295 295 294 294 293 293 295 295 295 294 295 296 295 296 296 296 296 296 294 294 294 293 293 294 294 294 294 294 294 295 292 293 293 293 292 293 292 292 292 290 289 288 287 287 288 287 285 285 284 285 284 284 283 281 281 281 281 281 280 278 279 277 277 278 277 277 278 279 278 280 278 279 278 278 278 278 279 279 279 277 277 277 277
297 296 295 294 293 292 292 291 292 292 292 292 292 292 292 293 294 295 295 294 293 293 293 293 293 293 293 293 294 293 293 293 292 292 293 293 292 291 292 292 291 290 288 288 287 287 286 286 285 283 283 283 283 283 282 281 281 281 280 280 278 278 277 279 279 277 277 277 277 277 277 278 278 278 278 278 278 278 277 278 278 279 279 279 279
295 295 294 293 292 290 291 290 290 290 291 291 291 291 291 292 292 294 295 294 292 292 293 293 292 292 292 292 292 293 293 292 291 291 292 293 292 292 291 291 292 291 290 289 287 286 286 285 284 282 282 282 281 281 281 281 280 280 279 279 278 278 278 280 281 279 278 276 277 277 278 277 278 277 278 278 277 277 277 278 278 278 279 279 279
294 294 293 292 290 290 290 290 290 290 290 290 290 290 290 291 292 293 294 292 291 291 291 291 291 291 291 291 291 291 292 292 292 291 292 292 292 292 291 291 291 290 289 289 287 286 285 285 283 281 281 281 280 280 279 279 279 279 279 278 278 278 279 279 279 279 279 278 277 278 278 278 278 277 277 276 276 277 277 277 277 278 278 279 278
294 294 292 291 291 290 290 289 290 290 290 290 290 290 290 290 292 292 293 293 291 290 290 290 290 290 290 289 290 290 290 291 292 292 292 291 291 291 291 290 290 290 289 288 287 286 285 284 283 282 281 281 280 280 280 279 279 279 278 278 278 278 277 277 278 279 279 278 278 276 277 276 276 276 277 277 276 276 276 277 277 277 277 277 278
293 292 291 291 292 291 291 290 291 290 290 290 289 289 290 289 290 291 291 292 292 290 289 289 289 290 290 290 290 290 290 291 291 292 291 291 291 290 290 289 289 289 288 287 285 285 285 284 283 282 282 282 281 280 280 279 279 279 279 278 278 278 278 278 278 279 279 278 277 277 277 277 277 276 277 277 277 276 275 275 276 277 277 276 276
292 292 292 291 292 292 292 291 290 290 289 289 289 289 289 289 289 289 289 290 290 290 289 288 289 289 290 290 290 290 289 289 290 290 290 290 290 289 289 288 288 287 286 285 285 284 284 284 283 283 283 282 281 281 280 280 279 279 279 278 279 279 278 278 278 279 278 277 277 276 277 276 277 276 276 276 275 275 276 275 275 276 276 276 276
292 292 292 292 293 293 292 289 289 288 288 288 288 288 288 288 288 288 288 288 290 290 289 288 288 288 288 289 289 289 289 289 289 289 289 289 289 289 288 287 287 286 285 284 284 283 283 283 283 282 283 283 283 283 282 282 280 279 279 279 279 279 278 278 279 278 278 278 277 277 276 276 276 276 275 275 275 275 276 276 275 276 276 275 275
292 292 292 293 294 293 291 289 288 288 288 288 288 288 288 287 287 287 287 287 288 288 288 288 288 288 287 287 288 288 288 289 288 289 289 288 288 288 287 287 286 286 284 283 282 282 282 282 282 282 283 283 283 284 284 284 284 282 280 280 280 279 279 278 278 278 278 277 277 276 276 276 276 276 276 276 277 277 275 275 274 276 274 273 274
291 292 293 294 294 292 290 289 288 288 288 288 287 287 287 287 287 287 287 287 287 286 287 287 287 287 287 287 287 287 288 288 288 290 291 291 288 287 287 286 285 285 284 283 281 281 280 281 280 282 282 282 282 284 285 285 285 285 284 284 283 281 279 278 278 278 277 277 277 277 276 276 277 277 277 277 277 276 276 275 275 274 273 271 271
292 292 293 293 292 291 290 287 287 288 287 288 287 287 287 286 286 286 286 286 286 285 286 287 287 287 287 287 286 287 287 288 290 290 291 291 289 287 286 285 284 284 283 282 282 281 280 280 280 281 281 281 281 282 284 285 285 286 285 285 285 285 285 282 279 277 277 276 276 277 277 276 277 277 277 277 276 275 276 275 274 274 273 272 271
291 291 292 292 291 290 289 288 288 288 287 287 287 286 286 286 286 285 285 285 284 285 286 286 287 287 286 286 285 286 286 288 290 290 290 291 290 287 285 285 284 283 283 282 282 280 280 279 279 280 281 282 282 282 282 283 285 285 285 285 285 285 285 285 284 281 280 278 277 277 277 277 277 277 278 277 278 275 275 274 274 274 274 273 272
290 291 291 291 291 290 289 288 288 288 287 287 286 286 285 286 285 285 285 283 284 284 285 286 286 286 286 285 285 285 285 286 289 290 290 290 290 288 284 284 283 283 282 282 281 280 280 279 279 279 280 281 281 282 282 282 282 282 282 282 281 283 285 285 284 283 282 280 279 278 279 279 278 279 279 280 277 275 275 274 274 273 273 273 273
288 289 290 290 289 289 289 289 288 288 286 285 285 285 285 285 284 284 284 284 284 284 284 285 285 286 285 285 285 284 284 287 288 289 290 290 290 289 284 283 283 282 282 281 281 281 280 280 280 280 280 280 281 282 282 282 281 281 281 280 280 281 281 282 281 281 280 279 279 279 279 280 279 279 279 279 278 278 277 276 275 275 272 269 269
288 288 289 289 289 289 288 288 287 286 285 285 284 285 284 284 284 283 283 283 283 283 283 284 285 285 285 285 284 284 284 287 287 288 289 290 290 286 284 283 282 282 281 281 281 281 280 280 280 280 280 281 283 284 283 282 281 280 279 279 279 280 280 282 283 283 281 280 279 280 279 280 281 279 279 279 278 277 274 270 269 269 268 269 270
288 288 288 288 289 288 287 288 287 286 285 285 284 285 284 283 283 282 282 282 282 282 283 283 284 285 285 284 284 284 284 285 287 288 289 290 289 285 283 282 282 281 281 281 280 280 280 281 281 281 281 281 284 286 285 283 281 280 279 279 279 278 279 280 284 285 284 283 283 283 283 283 283 283 283 283 280 277 273 271 272 271 270 270 271
287 287 288 288 287 287 287 287 287 286 285 285 285 285 284 283 283 282 282 282 282 282 282 282 283 284 284 284 284 284 284 284 286 287 288 289 288 285 283 281 281 280 280 280 280 280 280 282 282 281 281 281 285 286 286 283 280 280 279 278 277 277 278 279 279 282 284 284 284 284 283 283 284 284 284 284 283 281 275 273 274 273 272 271 270
287 287 287 286 286 286 286 286 287 286 286 285 285 284 283 283 283 281 282 282 282 281 281 281 281 282 283 284 284 284 284 284 286 287 288 289 287 285 282 281 280 280 280 279 280 280 280 281 282 282 282 282 286 287 286 283 281 280 279 278 277 277 278 278 278 278 279 279 281 282 282 283 283 283 283 285 284 283 278 277 276 274 273 272 272
287 285 286 286 285 285 286 286 286 286 286 285 284 284 283 281 281 280 280 280 280 279 280 281 280 281 282 283 284 284 283 283 284 287 288 288 289 284 282 280 279 279 279 279 278 279 279 280 282 284 284 284 286 287 286 284 281 280 279 278 277 277 279 278 278 278 278 278 278 280 280 281 282 282 282 282 283 283 280 278 277 275 274 274 273
286 286 285 284 284 285 285 285 286 285 285 285 284 282 281 281 280 279 279 279 278 278 279 280 280 281 281 282 283 283 283 282 283 286 287 289 289 285 281 281 280 279 279 278 278 278 279 279 280 283 285 285 286 287 287 285 283 280 280 279 280 281 280 278 278 279 277 278 278 279 279 279 279 280 280 280 280 281 281 280 278 277 276 275 274
285 284 284 284 284 284 284 283 284 284 283 282 280 280 278 279 280 279 278 278 278 279 278 279 280 281 281 281 282 282 282 283 282 285 287 288 289 286 282 281 281 280 279 278 278 279 279 280 280 283 285 285 286 287 287 286 285 280 280 283 283 284 280 279 279 279 277 277 277 277 276 276 276 276 277 277 278 278 279 279 279 277 277 277 276
284 283 283 283 282 282 281 281 282 281 281 280 280 279 277 277 277 278 278 277 278 278 278 278 279 280 280 280 280 281 281 282 283 283 286 287 289 287 285 283 284 281 279 278 279 279 280 280 281 283 285 286 286 288 288 287 285 282 284 285 284 285 282 279 279 278 277 277 276 275 275 275 275 275 275 275 276 276 277 278 278 278 277 277 277
282 281 281 281 280 280 279 279 279 278 279 279 279 279 277 277 277 277 278 278 278 277 277 278 278 279 279 279 279 279 280 280 282 283 284 287 289 288 286 285 284 281 281 280 280 280 280 280 281 283 285 286 287 288 288 287 284 285 285 285 285 284 281 279 278 277 277 276 275 275 275 275 275 275 274 275 275 275 276 276 276 276 277 276 277
280 281 281 280 279 278 276 277 277 276 278 278 279 278 276 276 277 276 277 278 278 278 278 278 278 279 279 278 278 278 279 279 279 282 284 285 288 288 287 285 285 284 281 281 281 281 282 283 283 284 285 286 287 288 288 287 286 286 285 285 284 283 282 280 279 278 276 276 276 276 276 276 276 276 277 276 276 276 275 275 275 275 276 276 276
280 281 280 279 278 275 275 276 276 276 277 279 280 280 279 278 279 278 278 278 278 278 278 278 278 278 278 279 278 278 278 278 278 280 282 284 286 287 286 285 284 284 282 281 282 283 283 284 284 284 285 285 286 286 286 286 286 286 285 285 284 283 282 281 280 278 277 277 277 277 277 277 277 277 277 277 275 275 274 274 274 274 274 273 273
283 283 282 281 279 278 279 280 279 279 279 279 280 280 279 279 279 278 278 279 279 279 278 278 278 278 278 279 278 278 277 277 277 278 280 282 284 285 285 284 284 283 282 281 282 282 283 283 283 284 284 285 285 286 285 286 286 285 285 284 284 283 283 282 281 280 279 279 279 278 278 278 278 277 276 275 275 275 275 274 274 274 273 273 272
282 283 282 281 281 280 280 280 280 279 279 278 278 278 278 279 279 278 278 278 278 277 277 277 277 277 277 278 277 277 276 276 277 277 278 281 283 284 285 283 282 282 281 281 281 282 282 283 283 283 283 284 284 284 284 284 284 284 284 284 284 284 284 283 283 282 281 281 280 280 279 278 277 277 276 276 275 275 275 274 274 273 273 272 269
283 282 282 281 281 280 280 280 280 280 279 278 279 279 279 279 279 280 280 280 280 279 278 278 278 278 278 278 277 276 276 276 277 280 279 282 282 283 284 283 282 282 282 283 282 282 282 282 281 281 281 281 281 281 281 282 282 283 283 283 283 283 283 282 281 281 281 281 280 279 278 278 277 277 276 275 275 275 274 274 274 273 272 271 270
282 282 281 281 281 281 280 279 279 279 279 279 279 278 278 281 281 280 279 280 282 283 282 279 279 279 278 279 279 278 277 278 280 281 281 282 283 285 285 285 284 282 283 284 282 281 280 280 280 280 280 280 280 280 280 280 280 280 281 282 282 282 282 282 282 282 281 281 280 279 279 278 277 276 275 275 274 274 273 274 272 272 270 269 269
282 282 281 281 281 281 281 280 279 278 278 279 278 278 278 279 283 283 282 281 282 283 284 283 283 282 280 279 280 282 281 281 281 281 281 282 283 285 286 286 285 284 284 283 281 280 280 279 279 280 280 281 280 280 280 280 280 280 280 280 281 281 281 281 281 281 281 280 280 279 279 278 277 276 274 274 273 273 271 272 271 270 270 269 269
281 283 282 281 281 280 280 279 279 278 278 277 277 277 278 277 277 281 283 282 282 283 283 283 283 283 283 281 279 278 281 282 282 282 282 282 283 284 285 286 286 285 285 284 280 279 280 279 279 280 280 280 281 281 281 281 281 280 280 279 280 280 280 280 280 280 280 279 279 278 277 277 277 276 275 273 273 272 271 269 269 268 268 268 268
281 282 282 282 281 280 279 279 279 278 278 277 277 277 277 277 277 277 279 283 283 283 283 283 283 283 283 283 283 281 281 282 282 282 282 282 282 283 284 285 286 286 285 282 279 279 279 279 279 280 280 280 281 281 281 281 281 281 280 280 279 280 280 280 281 279 279 279 278 277 276 276 275 274 273 273 272 271 269 268 268 268 268 267 267
281 282 282 282 280 280 279 279 279 279 279 278 278 277 277 278 278 277 276 275 278 281 283 283 283 283 283 283 283 282 282 282 283 282 282 282 282 283 283 283 285 286 284 281 280 278 279 278 278 278 279 280 280 281 280 280 280 280 280 280 280 279 279 278 278 278 277 278 278 276 275 274 272 272 272 272 272 271 270 268 268 267 266 266 266
281 279 279 279 281 281 280 279 279 279 278 278 277 277 277 277 277 277 277 277 276 276 276 279 282 284 282 283 283 283 283 283 283 283 283 283 282 283 283 281 281 282 283 282 281 280 278 278 277 277 278 278 278 279 279 279 279 279 279 278 278 277 276 275 276 277 276 276 275 274 273 271 272 273 272 271 270 269 269 268 267 267 266 266 265
280 280 281 280 280 280 280 279 278 278 278 278 278 278 278 277 277 277 278 278 277 277 276 278 278 282 283 283 283 283 283 283 283 283 283 283 283 283 279 279 279 280 281 281 281 280 280 279 278 277 276 276 275 275 276 276 276 277 276 276 275 274 273 273 273 272 272 273 273 272 272 272 273 273 272 271 271 270 269 268 268 267 267 266 266
279 280 280 280 279 279 279 279 278 278 279 278 278 278 278 278 277 278 278 278 277 277 278 278 278 279 282 281 282 283 284 283 283 283 284 284 284 282 280 279 279 279 280 281 281 280 279 279 279 278 276 275 273 273 271 272 272 272 273 273 272 271 271 270 270 270 270 270 271 271 272 273 273 272 271 270 270 270 269 269 268 267 266 266 266
278 279 280 280 279 279 279 279 279 279 278 278 278 278 278 277 277 277 277 277 277 277 277 277 278 278 279 279 281 282 282 283 283 283 284 284 283 281 280 279 279 278 279 280 280 280 279 278 276 276 275 274 273 272 271 271 270 270 270 270 270 270 272 271 272 270 270 271 271 272 273 273 273 272 271 271 270 269 269 268 268 267 266 266 266
277 278 279 280 281 281 280 280 279 279 278 278 277 277 277 277 276 276 276 277 277 277 276 277 277 278 279 279 279 280 281 280 280 280 281 281 281 281 280 279 278 278 278 278 278 279 279 277 275 274 272 271 271 270 270 271 270 270 270 269 269 269 271 270 270 270 271 271 272 273 273 273 272 272 271 271 270 270 269 268 268 267 266 266 265
275 277 279 280 281 281 281 279 279 279 278 278 278 278 277 277 277 276 276 276 276 276 276 275 276 277 278 278 278 279 279 278 278 279 279 279 279 279 279 278 278 277 277 276 276 277 277 277 275 275 273 272 272 271 271 271 271 270 270 270 270 270 271 272 272 272 273 273 273 273 272 272 272 272 271 271 270 270 269 268 268 267 267 266 266
275 277 277 280 280 281 280 279 279 279 279 279 279 278 277 277 277 276 276 276 276 275 275 275 276 277 277 277 280 280 278 278 278 277 277 278 278 277 277 277 277 276 275 275 274 274 275 275 275 275 275 275 275 274 273 273 272 272 272 273 273 273 273 274 274 274 274 274 273 273 273 272 272 271 270 270 270 270 269 269 268 267 267 266 266
273 276 277 279 279 279 279 279 278 278 278 277 278 278 277 276 276 276 276 275 275 275 275 274 275 274 276 278 279 280 279 277 277 276 276 276 276 275 275 275 275 275 275 274 274 274 274 274 275 275 275 275 275 275 275 275 275 275 275 275 275 274 274 274 274 274 274 274 274 273 273 272 271 271 271 271 269 269 268 268 267 267 266 265 265
272 274 276 277 278 278 279 279 278 278 278 277 277 274 275 276 275 275 275 274 274 274 274 273 272 271 274 278 278 279 278 276 274 276 276 276 276 275 275 275 275 275 276 275 275 274 274 273 274 275 276 276 276 276 276 276 276 276 275 275 275 274 274 274 274 274 274 274 273 272 272 272 271 270 269 269 269 268 268 267 266 265 265 264 264
271 273 275 276 277 277 277 278 277 277 277 275 275 275 275 275 275 274 275 274 273 272 273 272 270 270 271 274 276 277 276 274 274 275 275 274 275 274 272 270 270 270 270 269 269 271 275 275 273 270 269 270 270 271 272 272 273 274 274 273 272 272 273 272 272 272 272 271 271 270 269 269 268 268 267 267 267 266 266 265 265 264 264 263 263
270 272 274 275 276 276 276 275 275 275 274 273 274 273 272 274 274 273 273 273 271 270 270 269 268 269 270 272 274 274 272 272 269 269 270 271 271 270 268 268 268 268 268 267 267 269 270 270 269 269 267 266 266 267 267 267 267 268 269 270 270 269 269 269 269 268 268 268 268 267 267 267 266 266 266 266 265 265 265 264 264 263 262 262 261
270 272 273 274 274 274 274 274 272 273 273 273 273 272 271 272 272 271 271 270 269 269 267 267 267 268 268 270 270 269 268 268 267 266 265 264 265 264 263 264 264 264 264 264 264 265 266 267 267 267 266 265 265 263 263 263 263 263 263 265 266 266 266 266 265 265 266 266 266 266 266 265 266 265 264 265 264 264 264 264 263 263 262 261 261
270 272 272 272 273 272 271 271 271 271 272 271 271 270 270 270 269 268 267 268 268 266 266 266 266 266 267 267 267 266 265 265 264 263 262 261 260 261 260 261 261 261 260 261 262 262 262 263 263 263 263 262 262 261 261 260 260 260 260 261 261 261 260 260 262 263 263 263 263 263 264 264 264 263 263 263 263 262 262 262 262 261 261 261 260
271 271 271 270 270 270 270 270 269 268 269 269 269 268 267 267 267 266 266 265 265 265 265 264 264 264 264 264 263 263 263 261 260 260 260 260 259 259 259 259 259 259 258 258 257 257 257 258 258 258 259 259 259 259 259 259 258 258 257 256 256 257 257 258 257 258 258 259 260 261 262 262 262 262 262 262 262 261 261 261 260 260 259 259 259
269 269 269 269 269 269 268 268 268 268 268 267 266 265 265 265 264 264 264 264 263 263 263 262 262 263 262 261 262 261 261 261 261 260 260 259 259 259 258 258 257 257 257 257 255 255 255 254 255 255 255 255 255 255 255 255 255 254 255 253 256 260 259 259 257 256 257 258 258 259 259 260 260 260 260 260 260 260 260 260 259 259 258 258 257
266 266 266 266 266 266 266 266 266 266 266 265 265 264 263 263 263 262 262 262 262 261 262 261 261 261 261 261 261 261 261 261 260 260 259 259 258 258 258 257 257 257 257 256 255 254 254 254 254 254 253 253 253 254 254 255 255 256 254 255 260 261 261 260 259 258 256 255 257 258 259 259 259 259 259 259 259 259 259 259 258 258 257 257 256
264 264 264 264 264 265 265 265 265 265 264 264 263 263 263 262 262 262 262 262 261 261 260 260 260 260 261 260 260 260 260 259 259 259 259 258 258 258 258 257 257 256 256 255 255 254 254 254 255 254 254 255 255 255 255 255 254 254 257 260 261 261 261 260 258 259 258 256 256 257 257 258 258 258 258 258 258 257 257 257 257 257 257 257 256
Wind_Speed
7 9 8 9 8 8 8 7 8 7 7 8 9 8 7 8 8 8 6 7 7 7 8 8 8 9 9 9 9 9 8 8 7 7 8 9 8 10 9 11 12 10 9 9 8 10 11 11 10 8 7 9 9 7 7 8 7 7 7 7 7 5 7 6 6 5 2 1 5 6 6 8 7 8 7 6 5 5 5 5 4 4 3 4 4
9 8 8 8 9 8 8 6 8 7 8 7 9 8 8 8 7 6 7 7 7 8 9 7 7 8 8 9 9 9 9 9 8 8 9 9 9 8 9 10 10 8 8 10 9 8 10 11 11 10 10 12 11 9 9 8 8 8 7 8 8 7 5 5 4 5 6 2 4 4 5 7 7 6 9 8 7 5 6 5 4 4 4 4 5
8 8 8 8 9 8 7 8 7 8 9 8 8 8 7 7 7 8 8 7 6 8 8 8 8 8 8 9 9 9 10 9 8 9 9 10 11 10 10 11 12 12 11 12 12 10 10 11 12 10 8 10 11 11 10 10 9 11 11 8 9 8 6 5 6 4 9 5 6 7 6 7 7 7 8 6 5 5 7 6 5 4 4 5 5
7 8 8 9 8 7 9 8 8 9 10 9 9 8 8 8 7 8 8 7 8 7 7 7 7 8 8 9 9 9 9 9 9 9 10 11 11 12 11 11 12 13 14 13 12 11 13 12 11 12 11 11 10 9 9 9 10 9 10 8 9 9 6 5 7 7 6 9 5 8 6 8 5 2 4 4 5 5 6 5 4 5 5 5 6
7 8 8 9 8 9 10 8 10 11 11 9 10 8 8 8 8 9 8 8 7 7 7 6 7 8 9 9 9 9 10 9 10 10 9 9 10 11 11 12 12 12 12 12 12 13 12 13 12 11 11 11 9 8 9 11 9 9 9 8 8 7 6 6 6 7 9 9 7 3 5 5 3 3 5 7 4 4 3 5 5 5 5 5 5
7 7 7 8 10 11 11 9 12 13 11 10 10 9 9 9 9 8 8 9 8 7 8 7 8 9 8 8 9 9 8 9 11 11 11 10 9 10 10 11 11 11 11 11 12 13 13 13 12 13 12 13 12 10 10 11 9 9 10 8 8 7 8 6 7 8 9 9 10 6 4 6 4 4 5 5 5 5 4 4 4 5 5 5 6
8 7 8 9 9 11 11 13 12 11 10 10 8 8 9 9 9 9 8 8 9 9 8 8 8 8 9 8 9 9 9 9 10 10 10 9 10 10 10 10 10 10 10 11 11 12 11 11 12 13 14 13 13 13 13 12 10 11 11 11 9 9 9 8 8 9 9 8 5 7 8 5 5 6 4 6 5 5 5 4 5 5 6 6 7
8 9 8 9 11 13 13 11 9 10 8 8 9 9 9 8 9 7 7 9 9 9 9 9 8 8 9 9 9 8 8 9 9 9 9 9 9 10 10 10 10 9 9 9 9 10 11 11 12 13 13 13 14 13 14 13 10 11 9 10 10 11 10 8 8 8 8 8 8 8 7 6 5 1 3 4 4 5 5 6 7 5 5 5 6
8 9 9 11 14 13 8 6 6 7 7 8 9 9 8 8 7 7 8 8 8 9 8 8 9 9 8 9 8 7 8 9 8 9 9 9 9 10 10 11 11 10 9 9 9 9 9 10 11 12 13 14 17 15 16 15 13 11 10 10 11 10 8 7 8 8 7 7 7 6 7 7 8 7 6 7 10 10 5 6 7 7 3 3 5
9 9 10 13 13 11 8 7 7 7 8 10 9 8 8 8 8 8 9 9 8 8 8 8 9 10 9 9 8 8 8 7 10 14 13 11 11 9 9 10 10 10 10 10 10 10 11 10 10 14 15 15 16 18 18 18 18 17 16 13 12 10 10 9 8 8 9 9 9 10 9 9 10 11 10 9 7 4 5 6 7 6 2 4 5
9 9 12 13 12 8 7 8 6 8 9 8 8 9 9 8 9 9 9 9 9 8 8 10 11 9 10 10 10 9 8 8 14 14 15 16 11 10 10 10 10 9 11 12 13 12 10 10 9 11 12 13 15 18 18 19 16 8 9 12 12 15 12 11 10 9 10 10 8 8 10 10 10 9 9 8 6 8 7 6 6 4 5 4 6
10 11 12 10 8 8 7 5 6 8 7 9 9 8 7 8 9 9 9 9 9 7 9 11 10 10 9 10 10 10 10 11 14 14 15 15 14 11 9 10 10 10 10 11 9 9 10 9 8 8 9 10 11 13 15 16 13 10 12 11 11 11 15 16 12 8 8 9 9 11 9 10 10 8 8 7 7 6 6 6 6 7 6 6 4
9 10 10 10 10 8 6 7 8 8 9 8 7 6 8 8 9 9 10 8 6 9 11 10 11 10 10 11 11 10 9 12 16 17 17 15 15 13 8 9 9 10 11 11 10 10 9 9 9 9 10 17 13 11 11 11 10 12 11 11 10 12 10 8 11 14 12 10 11 10 11 9 9 9 8 8 6 7 6 5 6 7 7 5 7
8 10 10 10 9 8 8 9 10 10 8 7 6 7 8 10 8 7 6 6 8 9 9 11 9 10 10 11 10 9 10 11 16 17 17 18 16 13 8 9 9 9 9 10 9 10 11 11 11 10 10 11 9 10 10 9 9 9 8 7 7 8 9 9 9 6 9 10 10 11 8 8 9 7 7 7 8 7 7 7 6 6 6 8 3
7 9 9 9 7 8 9 9 9 6 5 5 6 8 9 8 8 8 8 9 10 11 11 10 10 9 9 9 8 9 9 13 15 16 17 17 17 13 8 7 8 8 8 8 10 11 11 11 12 12 12 12 12 13 13 11 10 9 9 8 7 7 7 7 7 7 7 6 8 7 7 7 6 5 6 7 9 7 7 6 7 6 2 1 2
8 7 8 8 7 7 6 6 6 5 6 7 8 9 10 10 11 8 8 8 8 6 7 7 9 10 9 8 9 9 8 13 15 16 17 16 16 11 8 8 8 8 8 9 9 9 10 11 11 11 11 12 13 17 13 11 11 11 10 8 6 5 6 3 5 5 6 5 6 6 6 6 7 6 6 6 5 3 5 5 4 3 2 2 5
8 7 8 8 8 7 6 7 8 7 7 8 10 10 10 9 8 6 8 8 9 9 10 9 8 9 9 9 10 9 7 10 15 16 16 16 13 9 9 8 8 8 8 8 8 8 8 9 9 9 11 11 15 19 19 15 12 13 11 9 7 6 6 4 7 9 11 10 9 9 9 10 11 10 10 11 7 6 5 3 5 5 3 5 5
7 6 9 8 6 6 6 7 8 8 7 10 11 9 7 6 8 7 10 10 10 10 9 8 8 8 10 10 10 10 9 10 14 15 17 18 15 10 8 8 8 8 7 7 7 7 9 13 11 10 11 11 17 19 20 15 12 12 11 10 9 9 7 4 4 5 9 10 11 11 11 11 11 11 12 13 14 10 8 8 5 6 5 5 6
7 7 8 5 5 6 6 7 8 8 9 10 9 9 9 9 7 7 8 7 8 7 7 8 7 7 8 9 10 11 8 8 13 15 17 19 15 9 9 8 8 8 8 8 7 6 7 10 13 10 10 11 21 21 21 15 12 12 12 11 10 11 10 8 9 8 6 5 6 6 7 9 8 7 8 14 15 11 9 8 5 6 6 5 5
7 5 6 6 6 6 6 8 8 9 10 9 8 9 6 5 6 8 8 7 7 6 7 7 8 7 7 8 8 9 9 8 10 16 18 20 19 11 9 9 10 9 8 8 8 6 7 8 10 14 15 16 19 21 21 19 13 12 10 11 11 13 8 9 10 9 9 9 8 7 7 5 6 6 6 7 8 8 8 8 7 7 7 6 6
7 7 6 6 6 7 6 7 9 9 8 8 7 6 5 6 6 6 7 6 6 6 7 7 7 7 7 7 8 8 9 9 10 17 19 20 18 15 10 11 10 10 10 9 9 10 9 9 8 14 18 18 21 22 21 21 14 12 12 12 14 8 10 9 11 12 9 7 7 6 6 5 5 5 6 6 7 7 6 8 8 8 8 7 7
7 7 7 7 6 6 6 6 6 7 5 5 5 6 4 5 6 7 6 6 7 8 6 7 7 7 6 7 7 8 8 11 8 14 18 20 18 19 11 11 10 10 9 9 9 9 11 10 10 12 18 19 22 23 23 22 19 11 12 15 12 12 11 8 8 8 7 7 6 6 5 5 6 6 6 6 6 6 6 6 7 8 8 8 8
8 7 7 7 6 6 5 6 7 5 5 5 6 7 5 6 6 6 6 6 8 8 8 7 7 7 7 6 6 7 7 8 12 10 16 19 17 19 17 11 15 11 11 12 12 10 8 9 10 17 21 21 22 23 23 24 18 12 18 17 15 14 10 7 8 8 7 7 7 7 6 7 6 7 7 7 6 6 6 7 7 7 7 7 7
7 7 7 7 6 6 5 5 5 4 5 5 5 6 6 7 7 7 7 8 7 7 7 7 7 8 8 7 6 6 6 6 9 13 12 19 17 20 20 17 17 11 10 9 9 9 9 10 10 17 20 22 24 25 25 23 14 19 19 20 17 14 7 7 7 7 7 7 7 7 7 7 7 7 7 7 7 8 8 7 7 7 6 5 7
7 8 8 7 6 5 4 4 4 5 5 6 7 7 6 6 7 5 7 7 7 8 8 7 9 8 8 8 8 7 7 7 6 10 15 16 19 19 19 19 20 18 12 9 10 10 11 15 17 20 21 22 23 24 21 22 22 19 19 18 15 8 8 8 8 7 7 8 8 7 7 8 9 9 7 7 7 6 4 3 4 4 4 4 4
8 10 8 7 6 4 5 5 4 4 5 6 8 8 9 9 8 7 8 8 8 9 8 8 8 8 8 8 8 7 7 7 8 8 11 13 14 19 20 20 20 18 15 10 12 14 16 18 19 20 20 19 16 14 12 12 19 18 18 17 10 9 8 8 8 9 9 8 8 8 9 7 7 7 8 6 6 6 6 5 5 5 5 5 5
9 9 9 8 5 5 6 6 5 5 5 6 6 6 7 8 8 8 9 9 9 8 8 8 9 9 9 8 6 5 6 6 6 5 6 7 8 10 13 14 17 16 13 10 12 12 14 15 11 13 12 17 16 13 11 12 14 14 11 11 9 9 9 9 10 10 9 8 8 7 6 6 5 5 5 6 7 6 6 6 6 6 5 5 5
9 10 9 7 7 6 7 7 7 6 6 7 7 7 7 8 9 11 12 11 11 10 10 10 10 10 9 8 7 6 6 6 7 8 8 8 9 9 10 10 11 11 11 9 9 9 9 10 11 10 10 11 11 9 9 9 10 10 9 9 9 9 10 10 8 6 7 8 7 6 5 5 6 7 6 7 7 7 7 7 7 6 5 4 3
9 9 9 7 8 6 7 6 7 7 7 7 8 8 9 10 10 9 8 9 11 12 11 10 10 9 8 8 9 8 7 8 11 11 11 11 10 10 10 11 10 10 11 12 8 8 8 9 9 10 10 11 9 9 9 8 8 8 9 9 8 8 8 8 9 8 8 7 7 7 7 7 7 6 7 7 7 6 5 6 5 5 3 5 8
9 10 8 8 8 6 7 7 7 7 8 8 8 8 8 10 9 9 9 11 12 10 9 10 10 9 9 9 10 12 13 12 9 15 16 16 17 16 13 12 13 10 13 18 11 9 9 10 10 11 11 8 11 12 11 10 9 9 8 8 8 8 8 8 8 7 7 7 7 7 7 7 7 7 7 7 5 5 6 6 5 5 6 6 7
9 10 8 8 9 8 8 8 7 7 8 8 8 8 8 8 13 14 9 9 10 12 13 11 9 10 9 8 8 11 4 4 13 17 19 19 20 19 18 17 19 19 20 15 12 11 11 11 11 11 11 11 9 6 6 6 7 9 8 8 8 9 9 8 8 7 7 7 7 7 7 7 7 7 7 6 6 5 4 4 4 5 6 7 7
10 11 9 8 8 8 8 8 7 8 8 7 8 8 9 9 8 10 13 11 11 13 13 12 12 14 14 11 7 6 9 10 13 16 18 20 20 20 20 21 20 21 22 19 11 11 11 11 11 11 11 11 11 11 11 10 9 9 8 8 8 8 9 9 8 7 7 7 7 6 7 7 7 6 6 6 5 5 6 5 5 6 5 5 7
11 12 11 9 8 8 9 9 9 8 9 8 8 8 8 9 10 9 6 9 12 13 14 14 14 14 15 15 14 11 10 11 15 16 17 18 19 19 19 23 21 21 23 15 12 12 11 11 11 10 10 11 10 10 10 10 10 9 9 9 9 8 9 8 7 7 7 8 8 8 7 7 6 5 4 5 6 5 6 6 6 6 6 7 7
11 11 11 10 9 9 9 9 9 9 8 8 8 8 8 7 7 5 5 4 5 9 13 17 15 14 15 16 15 14 13 14 15 15 16 16 18 18 17 15 21 22 20 12 11 11 10 10 10 9 9 9 9 9 9 9 8 8 8 8 8 6 7 5 6 7 7 8 8 7 7 6 6 6 5 5 6 6 6 6 6 6 6 6 7
11 13 18 14 10 10 9 8 9 8 8 8 8 8 8 7 6 7 8 8 8 8 6 7 12 15 10 11 14 15 14 14 15 15 16 16 17 17 17 11 13 14 15 12 10 10 9 10 9 9 8 9 8 8 9 8 8 8 8 7 6 5 5 6 7 7 7 7 7 7 7 6 6 6 6 6 5 5 5 5 5 6 6 6 6
11 11 11 11 10 10 9 8 8 8 9 9 8 8 7 7 8 8 6 7 7 7 6 6 5 8 13 9 12 14 14 15 15 16 15 17 17 18 12 11 11 11 11 10 10 9 9 9 8 8 7 6 6 6 7 7 7 7 6 6 6 6 6 6 6 6 6 7 7 7 6 6 7 6 5 5 7 7 6 7 6 7 7 7 6
10 10 10 9 8 8 9 8 8 9 8 8 8 8 8 8 8 8 8 9 8 6 5 4 4 4 7 6 9 12 14 13 14 16 16 16 19 14 9 9 10 10 9 9 9 8 8 8 8 7 6 6 6 6 5 6 5 5 5 6 6 6 7 7 7 7 7 7 7 7 7 7 6 6 6 6 6 6 6 6 6 6 7 7 7
12 11 11 10 8 9 9 9 9 9 9 9 8 8 8 8 8 8 7 8 8 7 7 6 6 6 7 7 6 6 7 9 11 11 13 14 13 10 9 8 8 9 9 8 8 8 7 5 6 6 6 6 6 5 5 5 5 6 6 6 6 6 7 8 9 8 8 7 7 7 7 6 6 6 6 7 7 6 6 6 7 7 7 8 7
10 14 17 18 14 10 9 9 8 8 9 9 9 9 9 9 9 9 9 8 7 7 6 7 8 8 7 5 5 6 7 7 8 8 8 7 7 7 8 8 8 8 7 7 7 6 6 6 6 6 6 6 6 6 6 6 5 6 6 5 6 6 7 7 7 7 7 7 6 6 6 6 5 5 6 7 7 7 7 7 7 8 8 8 8
12 11 11 14 11 12 10 9 9 9 9 10 10 10 9 9 10 10 9 9 9 9 8 9 9 8 6 7 6 6 8 7 6 6 6 7 7 7 7 7 7 7 7 6 5 5 6 5 6 6 6 6 6 6 6 6 6 6 6 7 7 7 8 7 7 7 7 6 6 6 6 6 6 6 6 7 7 7 7 7 7 8 8 7 7
11 12 11 11 11 11 10 10 9 10 9 9 9 9 10 10 10 9 10 10 10 8 8 8 8 6 7 9 12 11 6 6 5 5 5 6 5 5 5 5 5 5 4 5 4 4 4 5 5 6 6 6 6 6 6 6 6 7 7 7 7 7 7 7 6 6 6 6 6 6 6 6 7 7 8 7 6 7 7 7 7 7 7 7 7
11 11 11 10 9 9 10 9 8 9 9 7 9 10 8 7 7 7 7 8 7 7 8 7 7 6 7 13 13 16 9 5 5 4 4 4 4 4 4 3 3 4 5 5 5 5 5 5 5 6 6 7 7 7 7 7 7 7 7 7 7 6 6 6 6 5 6 6 7 7 7 7 7 8 9 8 8 7 7 6 6 6 6 7 6
12 11 11 10 10 9 9 10 8 8 9 9 8 6 5 7 7 5 6 5 6 6 7 7 5 4 6 11 11 13 7 5 4 5 5 4 4 3 4 4 4 4 5 5 6 6 6 6 6 6 6 7 7 7 7 7 7 7 7 7 6 6 6 5 5 6 5 6 6 7 7 7 8 7 7 6 6 6 6 6 6 6 6 6 6
11 11 10 10 9 9 8 9 8 7 8 8 8 5 6 6 7 7 7 6 6 5 5 4 5 5 4 5 6 7 5 5 4 4 4 4 4 4 4 3 3 3 3 3 2 3 5 5 5 4 4 3 3 3 4 4 5 6 6 6 6 6 6 5 5 5 5 5 4 4 4 4 5 5 5 5 5 6 6 6 6 7 6 6 6
11 11 10 9 9 8 8 7 6 6 4 3 4 3 1 3 5 5 6 6 4 4 5 5 5 5 4 5 6 6 5 5 4 3 4 4 4 4 4 3 4 3 3 3 2 3 3 4 4 5 5 4 4 4 4 4 4 3 3 4 5 5 4 4 2 3 3 4 3 3 3 4 4 4 5 5 6 6 6 6 6 6 6 6 6
10 10 8 8 7 5 5 5 3 4 5 5 5 5 4 5 4 5 4 4 4 5 5 5 5 5 5 5 5 4 5 5 4 4 3 3 3 3 2 3 3 4 4 4 4 5 4 4 4 5 5 4 4 3 3 4 4 3 4 4 4 3 3 3 3 3 3 3 4 4 4 4 4 4 5 5 5 5 6 6 6 7 7 7 7
11 9 8 6 6 4 1 1 1 3 3 3 4 5 5 4 4 4 3 4 5 4 5 5 5 5 5 5 5 5 4 5 5 4 4 4 4 5 5 5 5 6 5 4 4 4 5 5 4 5 5 4 4 5 3 3 4 4 4 3 4 3 3 3 3 4 4 4 4 4 4 4 4 4 4 5 5 5 6 6 6 7 6 6 6
9 7 4 3 2 2 2 2 3 2 2 2 3 2 3 3 4 4 4 5 5 4 5 4 4 5 4 5 5 5 6 6 6 5 5 5 4 4 5 5 5 5 5 5 5 5 5 5 5 5 5 5 5 4 4 4 4 4 4 4 4 4 4 4 2 2 3 4 3 4 4 4 4 4 4 5 5 5 5 5 4 4 5 5 4
6 5 3 2 1 2 2 2 1 2 2 3 5 5 3 5 5 6 5 6 5 4 5 6 5 5 6 7 5 5 5 4 6 5 5 5 4 4 5 5 5 5 5 5 5 5 5 5 5 5 4 4 4 4 4 3 3 3 2 3 3 5 5 5 3 2 3 3 3 3 3 3 4 3 4 4 5 4 5 5 5 6 5 5 5
6 5 3 3 3 3 2 3 4 4 3 4 5 5 5 5 7 7 7 7 7 6 5 5 6 5 5 5 4 4 5 5 5 5 5 4 4 4 5 5 5 5 5 4 4 4 4 3 3 3 3 3 3 3 3 2 2 2 2 2 5 6 6 6 5 4 3 3 3 2 3 2 2 3 3 4 5 5 6 6 6 4 5 5 6
7 6 5 4 4 4 4 4 4 4 4 3 4 5 6 4 4 6 4 3 3 3 4 5 4 5 5 4 3 4 5 6 5 5 5 5 4 5 5 5 5 5 4 4 4 3 3 3 3 3 2 2 2 2 2 1 1 1 2 3 4 5 5 5 3 4 5 4 3 3 4 4 5 5 5 5 5 5 6 6 5 5 5 5 5
Wind_Direction
201 216 206 216 211 213 212 209 214 212 215 212 217 215 208 206 209 208 194 204 194 203 206 204 204 205 203 206 207 204 202 201 198 192 194 198 198 197 188 192 196 198 184 186 186 182 186 187 186 189 171 177 183 179 186 183 175 182 173 166 165 163 156 142 129 126 45 42 144 161 158 154 177 192 190 189 194 205 197 210 215 220 227 235 247
210 212 211 211 211 213 213 211 211 212 215 213 218 216 210 206 203 198 208 207 192 204 206 204 205 204 203 207 207 206 204 201 194 189 192 194 194 189 184 187 193 187 179 187 187 191 187 185 185 179 179 183 176 180 180 175 177 168 176 170 167 174 187 119 129 137 153 106 112 101 140 170 176 181 192 179 197 187 211 215 223 216 228 231 241
209 204 208 210 215 211 209 213 208 214 215 217 218 214 213 210 199 205 206 205 203 205 206 204 204 203 206 208 205 206 204 200 191 189 194 192 189 190 188 186 187 184 188 193 189 186 186 189 188 180 178 183 183 180 171 179 179 178 172 168 166 175 193 156 134 124 147 150 141 141 154 170 187 185 196 195 190 190 195 215 217 221 223 231 239
209 206 211 216 211 207 214 211 210 214 218 216 217 212 211 209 200 210 207 199 204 210 207 205 203 202 207 208 207 204 203 200 193 196 194 192 191 191 189 192 192 192 194 192 186 184 189 189 190 180 177 179 178 174 177 173 175 171 165 167 160 168 171 159 149 129 147 139 177 166 171 149 196 133 177 174 177 189 204 215 207 219 225 228 233
216 216 209 214 211 214 218 208 214 217 218 212 216 208 210 208 203 208 203 206 204 203 209 201 204 203 207 207 205 206 204 197 196 200 201 197 194 190 190 193 194 194 193 190 186 187 188 192 182 177 174 172 169 173 170 170 169 162 160 157 155 153 150 147 142 136 141 151 141 154 148 175 160 143 160 159 192 208 211 212 212 218 228 229 232
227 225 218 214 219 218 219 210 218 218 215 214 212 207 208 207 206 208 201 207 202 204 201 199 203 207 210 208 206 208 204 202 203 203 200 196 194 194 193 195 195 193 192 190 189 190 189 189 179 177 173 169 171 167 167 168 163 163 155 154 150 145 139 138 139 137 139 145 148 142 167 172 163 183 179 178 174 198 216 227 232 231 224 236 236
210 218 223 224 228 226 219 217 216 215 213 212 206 207 209 208 205 208 199 207 204 201 200 203 208 208 211 207 209 206 203 205 208 207 203 198 196 194 195 197 196 194 195 192 190 192 191 183 178 180 179 176 170 172 170 167 167 166 163 156 154 146 145 147 144 139 141 139 140 157 158 187 175 185 171 180 199 193 201 212 244 217 212 221 249
207 213 217 227 233 236 227 222 214 214 210 207 207 208 206 205 208 206 198 208 210 205 200 202 207 207 210 208 210 205 203 205 208 207 203 198 196 198 194 194 193 193 193 191 188 190 189 185 184 186 185 181 176 173 165 166 169 164 168 158 158 151 149 148 144 144 143 149 158 163 170 159 176 122 110 147 195 240 207 198 232 230 216 213 229
212 216 216 226 233 235 236 231 223 212 205 206 209 209 205 202 200 201 205 210 208 208 202 200 204 212 214 209 206 201 204 206 202 199 196 198 198 197 195 193 190 189 187 189 190 191 192 192 191 192 191 187 182 171 176 170 164 167 170 164 160 153 148 151 152 147 148 150 151 146 154 171 184 173 178 186 200 208 187 186 228 245 219 228 249
217 220 223 230 235 233 225 220 216 211 206 210 210 205 200 197 194 202 209 208 206 201 199 202 207 210 210 212 208 203 208 207 205 204 200 197 195 198 196 197 193 191 187 186 189 193 194 191 193 193 190 185 178 181 181 178 178 171 166 169 160 155 156 154 157 162 161 166 173 166 172 191 188 192 192 201 192 170 157 182 212 234 189 255 281
225 224 231 234 238 236 225 223 206 212 215 208 207 203 201 193 197 205 209 206 206 199 194 206 210 208 210 210 210 211 211 209 206 204 203 200 194 195 193 195 195 194 192 189 190 190 191 190 183 187 186 185 185 184 182 182 180 162 157 162 162 157 157 161 171 169 170 177 170 174 187 188 195 189 196 192 185 192 200 191 206 195 211 230 259
225 230 235 244 244 236 232 222 213 223 213 216 208 203 195 196 203 206 204 208 209 193 204 211 209 208 211 213 215 214 216 210 206 204 203 196 196 193 192 190 187 189 193 196 193 187 185 181 182 177 180 179 183 185 185 182 169 152 161 159 165 170 167 165 164 172 178 165 176 192 181 195 187 182 195 181 194 189 205 195 196 203 218 218 220
231 238 239 236 237 229 218 213 220 220 220 219 208 195 199 205 209 206 210 207 191 202 212 207 212 209 208 213 217 216 220 211 212 209 206 194 192 190 195 194 192 198 194 192 187 184 180 179 178 181 181 184 183 176 172 171 162 158 155 159 164 171 178 179 174 174 173 175 180 184 193 179 175 199 188 183 169 190 191 199 207 212 214 217 224
229 242 243 239 233 224 217 216 220 219 213 206 199 202 202 212 211 207 204 195 203 212 212 213 212 210 210 212 217 216 217 215 214 211 208 205 195 187 197 191 195 197 196 191 188 185 183 181 180 184 183 173 172 170 168 164 157 156 163 166 172 181 185 181 175 162 172 178 176 187 188 170 188 185 177 161 164 192 185 208 201 208 212 221 221
241 243 247 249 242 233 227 226 230 225 209 200 200 207 208 213 206 202 197 200 202 208 209 211 213 210 211 211 215 218 220 214 215 211 210 206 197 185 193 190 193 195 196 194 193 190 187 186 185 183 179 174 177 172 166 163 158 159 162 171 178 187 187 185 176 170 176 180 182 181 172 181 185 162 154 172 184 195 188 192 193 199 177 78 38
252 252 254 253 246 241 235 239 237 220 207 204 207 212 211 207 206 199 198 206 212 211 220 211 211 210 209 208 212 221 220 212 212 211 207 204 190 189 188 189 195 197 195 195 195 195 192 187 184 185 182 180 173 168 162 154 154 157 166 172 178 192 207 188 177 171 175 180 182 177 170 175 178 166 158 166 182 153 94 69 76 100 138 230 245
251 251 253 251 245 238 227 229 229 220 210 210 216 217 213 211 211 188 199 204 203 206 209 206 205 204 204 205 209 219 218 212 209 208 204 194 181 192 188 192 196 195 198 192 193 190 191 189 187 182 180 181 174 167 161 154 159 165 167 172 181 190 208 189 195 193 186 188 185 184 178 175 183 188 187 186 179 157 126 137 208 166 172 239 246
254 252 252 252 250 239 230 225 229 223 214 219 221 222 216 214 207 188 200 201 208 209 204 205 205 203 202 207 206 210 214 210 208 205 203 197 190 192 189 191 194 190 187 186 186 189 190 189 185 183 182 180 174 167 164 158 160 165 166 169 176 202 211 179 179 203 198 194 196 199 203 204 201 204 208 210 207 172 165 203 196 148 207 211 243
265 257 260 257 246 235 227 225 226 224 223 225 219 218 210 209 202 192 209 204 212 197 198 202 207 207 207 209 207 210 215 214 210 207 205 203 196 190 186 190 190 190 182 185 185 182 186 192 192 184 184 179 176 171 167 163 166 167 170 170 185 205 208 173 187 188 191 194 208 198 209 211 210 210 218 221 220 201 189 204 155 172 203 209 222
271 263 261 255 243 232 221 223 226 222 227 226 218 220 209 199 195 193 206 201 200 192 198 201 203 210 202 206 208 208 209 210 205 206 206 204 193 182 184 184 192 185 181 179 176 186 186 188 190 188 186 183 182 175 171 170 168 170 161 176 182 213 185 180 193 188 191 193 195 194 206 201 200 208 208 214 221 218 197 197 188 186 199 213 210
280 271 263 257 247 239 231 223 230 229 224 224 215 214 198 200 191 195 200 198 193 197 198 201 204 210 204 205 204 208 204 205 208 204 206 201 185 174 190 193 187 180 182 178 183 182 186 191 193 190 188 185 187 185 179 180 173 166 176 181 197 185 148 177 187 185 186 183 181 186 194 188 196 199 205 206 210 214 203 192 196 193 196 211 220
279 274 265 256 252 246 239 240 233 234 226 210 207 212 203 190 194 193 190 188 196 202 198 201 206 210 209 205 206 209 205 204 201 207 206 204 192 182 187 196 182 175 177 185 186 191 190 188 189 188 189 187 191 189 186 184 178 171 191 198 181 164 167 172 170 172 177 172 171 183 184 190 198 200 207 210 212 208 208 199 193 199 207 205 207
278 273 269 266 258 249 244 235 233 222 219 205 201 206 185 184 190 182 184 191 198 202 201 200 201 208 208 208 207 206 203 207 204 204 210 208 199 188 188 180 181 177 182 189 193 191 185 186 188 188 192 189 193 195 192 186 180 190 198 193 183 177 150 163 163 168 169 171 172 186 189 194 199 204 207 213 213 209 211 215 215 203 205 212 219
280 276 271 265 266 260 248 241 232 216 207 195 201 197 191 189 184 186 185 187 194 203 210 202 205 210 210 212 210 210 206 205 209 206 208 211 202 193 191 182 181 185 188 193 185 185 185 188 191 193 194 192 194 198 197 189 185 196 199 194 189 177 157 157 169 172 168 166 182 191 196 198 200 204 208 205 205 207 210 212 215 217 219 212 212
281 270 265 262 258 260 255 243 228 214 202 186 191 196 196 185 190 195 184 194 195 201 205 197 206 210 211 212 209 206 202 202 206 209 208 210 209 197 191 184 186 180 185 190 184 188 187 183 188 191 194 195 198 202 198 193 188 194 193 192 187 182 178 177 178 172 173 186 193 196 200 203 201 204 199 195 201 195 196 207 207 218 225 233 234
276 265 263 257 253 240 237 244 231 223 213 206 204 195 188 189 193 189 190 198 196 201 200 199 209 211 218 217 213 207 199 197 203 203 205 207 206 201 191 186 188 184 185 183 185 185 187 192 192 191 191 194 197 201 197 193 189 191 194 194 189 189 188 186 185 184 194 191 192 198 206 198 198 199 194 185 177 193 188 199 199 222 211 226 242
271 271 265 262 249 221 222 226 220 221 219 221 217 204 196 192 191 192 194 198 202 205 203 203 208 212 217 218 215 210 210 214 211 203 205 203 205 201 194 194 190 187 189 190 185 187 187 188 187 189 193 198 200 198 188 180 188 194 194 194 193 192 194 194 194 195 191 193 197 204 202 194 177 164 180 181 196 197 186 195 200 215 200 215 218
265 268 264 256 250 233 230 221 214 218 214 210 214 216 213 200 199 200 195 195 192 201 199 203 206 206 209 205 200 201 207 208 208 198 198 198 199 197 196 193 194 194 191 187 183 177 175 183 178 184 190 198 202 201 196 192 190 187 190 191 194 194 199 202 202 195 192 194 202 195 189 169 180 190 187 193 200 199 189 193 198 211 203 194 203
263 265 264 256 252 240 236 232 217 213 217 218 223 214 202 203 212 221 219 200 196 195 197 208 209 208 200 196 190 202 206 212 215 202 198 195 193 192 193 193 189 192 187 171 158 162 165 174 182 186 194 198 197 187 187 185 192 191 189 191 194 194 194 195 199 199 194 184 193 191 190 182 194 191 192 196 199 189 181 193 201 200 197 177 220
273 266 255 248 251 244 242 238 231 224 216 217 223 239 244 230 222 209 215 209 213 215 197 205 203 197 202 211 197 196 202 214 191 191 197 197 199 198 196 189 188 180 172 167 159 170 179 183 191 191 194 182 190 196 192 184 183 179 196 194 194 196 198 202 202 198 188 190 193 190 189 183 188 184 190 195 191 182 179 182 199 191 200 208 218
270 269 259 250 241 234 238 238 231 228 228 223 215 222 234 238 232 231 227 216 208 210 214 216 207 205 200 208 213 220 223 158 182 193 197 200 200 198 193 186 182 178 172 164 171 183 186 193 195 195 198 197 196 176 174 173 186 192 195 196 198 200 203 203 203 195 194 195 198 196 192 191 192 182 186 188 183 179 171 196 186 190 207 210 221
263 265 259 255 247 236 233 233 232 227 231 224 224 220 220 229 246 235 230 220 216 216 215 211 206 203 208 205 195 208 208 194 189 196 200 202 202 200 197 191 183 178 181 172 180 191 194 195 196 197 195 199 200 196 198 198 197 197 193 193 201 199 200 204 198 192 195 197 197 197 197 198 196 186 183 182 182 186 182 190 191 199 212 217 227
257 264 263 256 249 238 234 230 229 226 230 223 225 222 224 226 228 235 229 222 218 219 217 216 210 204 205 209 202 194 192 191 191 196 200 203 202 202 200 200 194 184 180 185 194 196 199 200 201 199 196 202 198 196 199 200 200 199 197 198 201 200 202 205 190 193 198 199 197 202 197 196 186 182 181 175 178 188 181 194 196 201 205 218 227
260 261 265 258 248 243 235 230 229 230 226 227 225 221 227 229 242 237 220 236 239 235 229 221 213 206 210 210 207 202 197 191 190 190 195 200 202 201 198 201 202 196 190 194 194 201 198 201 201 200 200 200 199 196 200 202 201 201 201 205 205 197 198 181 184 197 199 206 206 201 192 189 178 179 189 184 186 184 190 195 189 197 214 216 226
270 266 263 260 252 250 240 231 229 226 224 221 221 221 224 217 210 214 210 211 215 221 224 226 221 212 208 211 209 204 198 194 190 188 191 195 199 198 195 196 203 205 200 201 201 200 199 199 200 199 194 196 199 196 201 200 200 199 202 201 195 185 177 184 200 198 200 202 203 194 189 182 183 182 182 185 183 194 196 189 193 199 211 219 220
275 270 271 260 249 250 244 237 225 220 221 218 213 215 211 207 211 214 210 217 220 220 225 220 222 219 210 206 207 206 201 197 195 192 189 192 193 190 192 200 204 209 205 198 197 198 196 198 195 198 188 191 182 193 198 195 199 201 199 189 195 193 189 195 200 203 205 199 200 189 183 186 183 182 179 190 198 202 201 201 200 201 206 213 212
281 278 273 266 255 248 246 235 227 221 217 213 208 211 210 212 212 211 205 205 203 204 211 199 185 213 216 218 212 208 203 201 200 196 194 192 192 193 202 200 201 201 206 203 195 189 191 192 188 187 179 180 179 182 177 191 190 193 200 200 195 190 201 200 201 198 196 198 195 192 189 187 182 180 176 198 208 208 210 202 203 203 203 210 212
281 278 277 276 267 254 245 237 232 218 217 213 211 209 209 210 208 208 210 213 203 192 192 189 191 198 201 208 185 190 202 200 200 201 198 194 192 194 198 202 202 205 205 203 198 192 194 170 158 172 170 169 176 171 177 189 183 188 195 199 197 207 197 199 201 197 200 195 194 191 189 189 181 182 184 203 211 208 210 203 201 206 208 211 209
280 274 272 272 268 259 250 242 229 220 219 213 211 207 208 203 201 202 204 199 195 196 191 189 193 194 190 160 161 166 165 188 193 196 191 192 191 190 191 194 199 204 205 205 196 191 187 173 162 157 160 168 170 171 179 188 184 193 193 192 199 200 199 198 199 197 195 197 191 184 185 190 189 190 192 201 213 210 210 204 207 207 208 208 207
289 285 279 270 265 258 250 241 232 223 220 212 214 208 208 204 204 203 199 198 198 197 191 190 193 191 164 145 165 174 183 195 194 189 188 192 193 192 188 190 194 194 195 190 191 186 180 162 155 159 161 162 168 172 180 183 189 192 188 192 191 197 199 194 192 192 192 189 187 184 187 196 199 198 204 210 213 210 210 212 212 212 219 219 217
288 284 281 274 262 260 249 239 233 229 227 222 219 212 214 209 205 202 198 195 189 189 197 202 200 181 160 174 184 187 188 193 192 197 202 198 190 182 189 185 179 180 179 179 181 170 165 156 156 163 165 169 172 176 178 180 184 185 190 192 193 194 192 193 187 187 186 186 195 197 199 200 202 204 215 216 210 211 213 211 212 212 214 218 215
284 283 281 277 264 253 251 243 237 234 230 225 219 215 213 208 205 200 206 206 202 187 184 193 196 178 177 180 189 197 198 197 187 187 192 192 189 181 164 162 162 166 168 174 175 177 174 169 167 167 171 171 170 174 174 181 186 189 190 194 197 196 195 196 195 196 200 204 205 206 206 202 208 212 217 211 207 208 207 207 212 213 213 211 210
283 278 277 274 268 253 249 247 236 230 225 225 225 217 201 191 190 192 200 206 204 190 185 187 175 153 171 190 192 201 198 183 181 181 177 181 176 158 150 147 146 152 163 170 175 173 172 170 172 174 174 176 176 178 185 192 189 191 192 195 197 199 200 198 191 195 198 205 207 207 206 210 211 207 211 209 211 205 204 199 203 210 216 211 208
284 282 274 269 265 258 250 245 240 229 224 222 217 208 195 187 181 176 178 187 191 186 181 158 136 147 150 181 180 194 181 161 157 157 154 152 151 137 116 109 125 113 110 106 124 153 162 165 154 124 97 100 104 123 143 153 169 182 185 186 190 188 188 184 187 187 193 206 208 196 196 194 198 198 202 203 198 202 206 196 200 205 207 211 205
281 279 276 270 262 255 252 239 232 223 212 202 189 174 184 189 194 178 162 158 150 144 142 136 140 149 162 174 177 177 138 138 132 123 134 141 132 107 103 82 83 95 94 72 55 70 83 104 116 122 113 91 87 93 101 96 91 98 122 155 164 168 168 157 132 111 115 152 161 172 181 184 194 198 202 200 199 203 208 204 203 203 207 208 203
278 277 274 270 268 255 252 236 219 201 193 190 182 169 161 155 148 140 135 128 140 143 137 137 148 158 165 163 149 133 127 126 125 122 115 80 105 105 100 99 87 69 58 68 46 71 77 92 110 117 120 114 106 86 78 65 71 76 80 80 97 113 114 118 115 129 154 172 186 191 196 200 209 205 205 200 203 205 212 209 203 206 209 208 209
278 269 271 263 265 256 258 196 65 175 169 175 165 162 152 146 127 119 120 127 134 134 136 146 145 146 139 137 135 126 118 114 116 118 108 88 80 88 81 87 89 85 81 66 67 80 83 85 85 103 106 105 90 77 78 68 69 73 84 87 100 102 105 129 144 162 168 170 167 170 190 199 208 206 208 208 207 208 209 211 201 205 208 205 203
276 274 267 272 274 307 195 165 145 147 127 144 132 132 118 112 110 111 105 101 106 117 120 116 113 115 119 105 103 115 110 106 104 112 116 115 115 114 110 105 103 100 92 76 66 69 75 83 87 93 99 101 105 106 109 108 101 98 93 85 89 106 110 109 116 125 143 147 161 177 190 203 210 204 204 205 211 207 209 221 204 213 204 204 205
303 302 300 297 240 193 143 115 102 99 110 115 112 99 83 86 81 64 65 74 85 95 80 107 120 116 102 81 108 108 113 118 117 117 117 119 114 103 100 97 97 92 90 86 80 80 82 84 86 93 103 110 114 121 124 116 110 99 110 118 142 145 146 146 144 149 126 125 146 157 170 180 187 196 190 199 212 211 215 216 205 207 205 203 197
324 327 335 347 360 4 13 51 81 111 116 124 120 109 98 87 68 74 79 83 79 79 93 98 108 114 118 118 114 115 114 116 117 118 113 107 99 97 93 93 90 89 96 101 93 87 81 81 83 88 91 97 100 103 108 115 130 146 149 177 187 184 179 173 161 149 130 121 126 134 139 164 166 184 193 202 208 209 213 215 211 202 202 200 207
341 346 351 2 17 41 50 57 52 45 52 43 54 93 109 89 87 85 94 95 85 82 79 70 68 77 79 70 96 102 97 96 99 97 107 106 109 104 103 100 104 98 96 94 88 81 89 90 98 103 103 98 88 89 91 101 111 149 187 203 211 205 197 185 152 163 145 134 130 138 159 178 191 197 205 206 209 209 217 210 207 199 205 203 205